Theta_e
289 287 285 287 289 288 288 289 291 289 287 285 284 283 284 285 286 286 286 288 288 288 287 289 287 287 289 288 285 287 286 285 285 284 284 284 284 284 283 283 283 284 284 285 285 285 285 285 286 286 286 287 287 288 288 288 289 289 290 291 290 292 294 294 294 295 295 295 294 294 293 292 294 294 294 293 293 293 293 294 295 295 295 296 297 299
290 286 287 290 289 289 290 289 288 286 286 288 285 284 285 283 285 287 288 288 287 288 284 283 284 286 287 285 285 286 285 284 283 284 283 283 283 284 283 283 283 284 284 284 284 285 284 284 285 285 286 287 286 286 286 287 287 288 289 289 289 291 292 292 293 293 293 293 293 292 291 291 291 290 290 290 290 290 291 291 291 292 293 293 293 295
286 286 290 291 288 287 287 287 286 286 286 284 285 283 283 285 283 287 287 286 285 287 286 283 285 287 289 283 285 284 284 284 285 284 284 283 283 283 283 283 283 283 283 283 283 283 283 284 284 284 284 285 285 285 285 286 287 287 288 288 289 289 290 291 292 293 292 292 292 292 290 291 290 290 290 289 289 289 289 289 289 289 289 290 290 291
284 286 290 288 287 288 287 284 285 285 284 284 284 283 284 284 286 284 285 285 288 286 284 281 283 286 286 283 283 284 284 284 284 284 283 284 283 283 283 283 282 282 282 282 282 282 282 282 283 283 283 284 284 284 285 285 285 286 287 287 288 288 289 289 290 292 291 292 291 291 291 290 290 289 290 289 289 288 288 287 288 288 288 289 289 289
290 288 289 289 287 288 287 285 285 285 284 283 285 284 284 284 284 287 286 285 284 285 283 283 284 283 287 286 282 283 284 283 283 283 282 283 283 284 283 283 283 282 282 282 282 282 282 282 282 282 283 283 283 283 283 284 284 285 285 286 287 287 288 288 289 289 289 290 290 289 289 289 288 288 287 287 286 286 287 286 286 286 287 287 288 288
287 290 287 287 286 287 287 285 285 286 283 282 283 287 288 287 287 284 284 285 282 282 282 285 279 276 278 280 284 282 282 282 283 281 281 282 283 282 282 282 282 282 282 282 282 282 282 281 281 282 282 282 282 283 283 283 283 284 284 285 286 286 287 287 287 288 289 288 288 288 287 286 285 284 284 283 283 283 284 284 284 285 285 286 286 287
289 289 291 290 287 285 286 286 284 288 284 284 286 286 289 287 285 285 283 284 279 279 284 281 280 275 279 281 282 281 281 281 281 281 282 282 282 282 282 282 282 282 282 282 282 281 281 281 281 281 281 281 282 282 282 283 283 283 284 284 285 285 285 286 286 287 288 287 286 286 285 284 284 282 283 283 283 283 282 283 283 283 284 284 284 285
288 288 288 287 287 286 285 285 285 288 286 283 284 283 285 285 285 283 283 284 281 280 282 282 281 278 278 282 281 281 281 280 281 281 281 282 281 282 282 282 282 282 282 281 281 281 281 280 280 280 281 281 281 281 282 282 282 282 282 283 283 284 284 284 285 286 287 285 285 284 284 284 282 282 281 282 282 282 283 282 282 282 283 283 283 283
288 286 286 286 286 284 286 286 286 288 287 284 285 283 283 285 283 281 284 281 280 281 279 279 281 280 277 279 281 282 281 280 280 280 281 281 281 281 282 282 282 282 282 281 281 281 281 280 281 281 280 280 281 281 281 281 281 282 282 282 282 282 283 283 284 284 284 285 283 283 282 281 282 282 282 282 282 282 282 281 281 281 282 282 282 283
287 289 287 289 287 286 285 284 286 289 287 285 283 283 282 281 281 280 278 282 278 278 274 278 281 277 279 279 280 280 281 282 281 281 281 281 281 281 281 282 282 281 282 281 281 281 281 281 280 280 280 280 280 280 281 281 281 281 281 282 282 281 282 282 282 283 282 282 283 282 281 280 280 280 280 280 280 280 280 280 280 280 281 281 281 281
288 288 289 287 287 287 284 283 284 286 286 284 283 284 283 280 279 278 278 276 277 273 275 280 282 282 278 280 281 282 282 281 280 280 280 280 281 281 281 282 282 281 281 281 281 281 281 280 280 280 279 279 279 279 280 280 280 280 280 281 280 280 281 281 281 282 281 282 281 281 281 280 280 279 279 279 279 279 279 279 279 279 279 280 280 280
286 287 287 287 287 285 285 285 283 283 282 285 285 281 283 283 278 276 269 274 272 269 271 277 279 281 276 277 280 281 280 280 282 281 281 281 281 282 282 282 282 281 280 280 280 281 281 280 280 279 279 279 279 279 279 279 279 280 280 280 280 280 280 281 281 281 281 281 281 281 280 280 280 279 279 279 278 278 278 278 278 278 279 279 279 279
285 287 285 287 288 288 284 284 284 283 285 284 283 284 278 272 271 272 269 274 271 273 277 278 279 280 280 282 282 281 281 280 280 282 283 282 282 282 282 282 282 281 280 280 280 280 280 279 279 279 279 279 279 278 278 279 278 279 279 280 280 279 279 280 280 280 280 280 280 280 280 280 280 280 279 279 278 278 278 278 278 278 278 278 278 278
283 282 285 287 288 287 289 287 283 281 283 283 284 280 275 271 271 268 266 264 269 274 276 278 279 278 279 281 280 282 280 280 280 280 282 283 283 283 283 282 281 281 280 280 280 280 280 280 280 279 278 278 279 278 278 279 278 278 279 279 280 279 279 279 280 280 280 280 280 280 280 280 280 280 279 279 279 278 278 278 278 278 277 277 277 277
277 280 284 287 286 287 290 291 288 284 283 284 282 285 281 275 269 269 267 273 274 276 276 276 275 272 275 281 278 278 279 279 279 280 280 282 283 282 281 281 280 280 280 280 280 281 280 280 280 279 279 278 278 278 279 278 278 278 279 279 280 279 279 279 279 280 280 279 279 279 280 280 280 279 279 279 279 279 279 279 278 278 277 277 278 277
281 281 284 286 284 287 288 286 285 284 285 281 281 282 279 280 279 277 272 269 269 270 271 273 276 276 280 278 279 278 278 278 279 280 281 282 281 281 281 281 281 281 281 281 280 280 280 280 279 279 279 278 278 278 278 278 278 278 278 278 279 279 279 279 279 279 279 279 279 278 279 279 280 280 279 279 279 278 278 278 278 278 277 277 277 278
281 279 283 286 285 285 287 285 287 287 283 283 283 279 282 283 284 274 273 275 272 269 275 269 277 280 279 279 276 277 278 278 278 279 280 280 281 280 281 281 281 281 281 281 281 281 280 279 279 279 278 278 278 278 278 279 278 278 279 279 279 279 279 279 279 279 279 279 278 278 278 278 278 278 278 278 277 278 278 278 277 277 277 277 277 278
280 279 283 284 286 287 284 285 284 284 286 284 278 282 283 284 282 280 275 271 267 271 274 272 277 279 279 280 278 278 277 278 278 278 279 279 279 280 281 281 281 281 281 281 281 280 280 280 280 279 279 278 278 278 278 278 278 278 279 279 280 281 281 280 280 280 280 279 279 278 278 277 277 277 277 277 277 277 277 277 277 277 277 276 277 277
287 282 283 284 285 286 285 287 286 286 286 283 281 284 285 279 279 280 274 274 272 270 272 275 277 279 280 282 278 280 279 281 279 278 278 279 279 280 281 281 281 281 280 280 280 280 280 280 280 279 279 279 279 279 278 279 279 280 280 280 281 281 280 280 281 280 280 280 280 279 277 277 277 277 277 276 277 277 277 276 276 276 276 276 276 276
285 281 281 285 284 286 285 285 281 283 287 286 287 285 285 283 278 276 279 274 276 277 278 277 279 280 281 280 280 283 283 282 279 278 278 280 280 281 281 281 281 281 281 281 281 281 281 281 280 280 280 280 279 279 280 280 279 279 279 279 278 278 278 279 279 279 279 279 279 279 278 278 278 278 277 277 277 277 277 277 276 276 276 276 276 276
285 285 277 282 285 284 282 283 283 284 282 282 283 281 283 280 282 280 280 277 277 273 276 277 277 282 281 281 282 283 282 282 281 280 280 280 281 281 282 282 282 282 282 281 281 281 280 280 280 280 280 280 280 280 281 280 280 281 280 280 280 279 278 278 277 277 276 277 276 276 276 276 276 275 275 275 275 275 275 275 276 275 275 275 275 275
284 283 281 282 282 281 281 282 284 284 286 285 286 283 285 281 279 278 278 280 277 278 277 277 278 284 284 280 279 280 280 281 282 281 281 281 281 281 282 282 282 281 281 281 280 280 280 280 280 280 280 280 280 280 280 280 279 278 278 278 277 277 277 277 277 277 276 276 276 276 275 275 275 274 274 274 274 275 275 275 275 276 275 275 275 275
288 285 281 277 280 284 284 286 284 285 286 285 286 285 286 284 283 280 278 279 275 279 278 278 275 282 282 279 280 279 280 280 281 281 281 281 281 281 281 280 280 280 280 280 280 280 280 280 281 281 281 281 281 281 281 281 280 280 279 278 278 278 277 277 277 276 276 276 275 275 274 274 275 274 274 274 274 274 274 275 275 275 274 275 274 274
292 285 281 280 281 280 283 284 284 283 287 287 285 281 283 283 284 284 284 281 279 277 276 273 276 281 281 281 280 279 278 278 279 281 281 280 280 281 281 280 280 280 280 280 280 280 280 281 282 282 282 282 282 282 282 281 281 280 279 279 278 277 276 276 276 276 276 275 275 275 274 274 274 274 274 274 274 274 274 274 274 275 274 274 274 274
287 285 284 277 277 278 280 284 286 286 285 282 280 280 281 281 279 278 277 275 277 278 279 276 276 282 283 280 277 276 278 279 278 279 280 279 280 281 282 281 281 280 280 280 280 280 280 281 282 283 283 283 283 282 282 281 280 279 278 277 277 277 276 276 275 276 275 275 275 275 274 275 274 274 274 274 274 274 274 274 274 274 274 273 273 273
289 286 284 279 278 276 276 276 279 281 283 282 281 280 281 284 281 280 279 275 277 279 280 277 279 284 281 279 281 279 279 279 278 280 280 280 281 282 282 281 281 281 281 281 281 281 281 282 282 283 283 283 282 281 280 279 279 278 278 278 277 277 276 276 276 275 275 275 275 275 274 274 274 274 274 274 274 274 274 274 273 273 274 273 272 272
287 285 286 286 284 283 284 281 282 283 281 281 280 280 281 279 280 281 275 275 278 278 280 283 284 280 281 282 281 281 279 280 280 280 281 281 281 280 280 281 282 282 282 281 281 282 282 281 281 282 282 282 281 280 280 279 279 278 278 278 278 278 278 277 276 276 275 275 275 275 275 274 274 274 274 274 274 273 273 273 273 272 272 272 271 271
285 286 287 287 287 288 283 282 283 286 285 284 282 281 281 280 279 281 280 278 281 278 277 285 283 280 283 281 279 280 283 281 280 280 280 282 281 280 281 281 284 281 281 281 280 280 280 281 280 280 280 280 281 280 280 279 279 279 279 278 278 277 277 278 277 276 276 275 275 275 275 274 274 274 274 274 273 273 273 273 272 271 271 271 270 270
286 286 287 284 284 285 282 283 282 283 284 283 283 283 282 281 278 279 280 283 282 281 280 284 282 280 283 284 284 285 285 283 282 282 282 282 282 281 281 281 281 282 281 280 280 280 280 280 280 279 280 281 280 279 279 279 279 278 278 279 278 277 277 277 277 276 276 275 275 275 275 275 274 274 273 273 273 272 271 271 270 270 269 269 269 270
288 286 286 285 285 285 284 283 283 284 282 282 282 283 284 282 280 281 282 283 282 282 284 284 281 281 284 281 282 285 284 283 282 282 282 281 280 281 281 280 281 281 281 280 280 280 280 280 279 280 280 280 279 279 279 279 279 279 279 278 278 278 278 277 276 276 276 275 275 275 274 274 273 273 272 272 271 270 269 269 268 268 268 268 267 267
289 284 288 284 284 284 285 282 282 283 282 282 283 283 281 280 280 280 280 279 280 279 281 280 281 281 285 283 281 280 279 280 281 280 280 279 279 280 280 281 281 281 280 280 280 279 279 279 279 280 280 280 279 279 279 279 279 279 279 279 278 278 278 277 277 276 275 276 274 274 273 272 272 271 270 270 269 267 267 268 266 265 266 266 266 266
287 283 282 283 282 283 280 279 278 278 277 278 279 281 278 279 277 278 277 279 279 279 280 278 277 279 284 280 279 281 280 280 280 280 280 280 280 279 280 281 281 281 280 280 279 279 278 278 278 278 278 278 278 278 278 278 278 278 279 279 278 279 277 276 277 276 275 275 273 273 272 271 270 269 268 267 266 266 265 265 264 264 264 264 264 264
286 281 279 278 280 281 278 277 276 276 277 278 279 280 280 281 282 278 279 280 282 283 279 278 279 283 281 279 279 279 279 278 278 278 280 280 279 280 280 281 281 280 280 280 279 278 278 278 278 278 278 278 278 278 278 279 278 278 279 279 279 277 276 276 276 275 274 273 272 271 270 269 267 266 265 265 264 264 264 263 264 262 262 262 262 263
283 284 283 284 280 276 273 275 277 277 272 276 283 285 282 280 280 279 280 281 280 282 280 281 280 277 274 275 278 279 278 276 279 280 280 281 280 278 279 279 280 280 279 278 278 277 277 277 277 277 278 278 278 278 279 278 279 279 279 278 275 276 275 275 274 273 273 271 270 269 268 266 264 264 264 264 263 263 262 262 262 262 262 262 263 263
284 284 283 281 277 272 273 275 274 270 275 280 278 279 282 283 282 281 282 282 280 278 278 276 276 276 279 280 280 280 278 277 276 277 277 278 279 280 279 279 279 279 279 278 277 277 277 277 277 276 276 277 277 277 277 277 277 277 276 276 276 275 274 274 273 272 271 269 268 266 265 266 264 263 263 263 262 261 261 261 261 262 262 261 262 262
283 284 280 276 275 273 271 274 270 272 276 276 276 275 277 277 277 276 275 276 276 277 278 277 279 280 280 280 278 277 277 276 274 274 275 276 277 279 279 280 280 279 278 278 278 278 278 277 278 278 278 278 277 277 277 278 277 275 276 273 275 273 273 272 272 271 269 268 266 265 265 263 262 262 262 263 261 260 262 261 260 260 260 260 260 259
286 284 282 278 280 271 274 273 276 278 277 277 272 274 276 276 275 276 273 276 279 276 276 275 277 278 278 278 276 274 273 274 275 277 274 275 276 277 279 279 279 279 279 278 278 278 279 279 279 279 278 276 277 276 276 275 275 275 273 272 271 270 270 270 270 269 268 266 265 264 264 264 262 261 261 261 261 259 260 261 259 259 259 259 260 260
285 284 283 280 277 277 272 272 271 271 272 278 281 276 279 279 279 278 278 271 275 270 277 276 276 277 276 274 272 270 272 274 273 277 276 276 275 275 275 276 275 276 277 277 276 276 275 276 276 276 277 275 274 274 273 273 273 273 271 270 268 269 268 269 269 267 266 265 263 264 263 263 261 260 260 259 259 259 261 260 259 258 258 259 259 259
282 283 282 282 277 274 273 273 272 272 273 279 277 274 274 275 278 276 272 268 273 271 275 276 276 276 274 275 269 272 272 267 271 275 276 275 275 275 275 276 275 275 275 275 276 276 276 275 275 274 274 273 274 272 271 271 272 272 271 269 268 268 268 268 267 265 265 264 263 263 262 260 260 260 259 258 259 258 258 258 257 258 257 257 257 258
278 277 279 276 275 276 274 272 272 275 274 276 272 274 275 275 278 275 263 263 268 271 272 275 276 275 273 271 271 273 274 267 271 276 276 276 277 276 276 276 276 275 275 275 275 275 275 274 274 272 273 273 275 270 269 270 271 270 270 268 267 268 268 268 266 265 264 263 262 261 260 259 259 259 257 259 257 257 257 257 256 257 257 256 256 257
276 275 277 275 278 277 278 273 273 274 278 274 273 274 274 274 273 264 267 269 271 271 272 276 276 276 273 271 273 271 275 278 278 278 275 274 275 275 275 275 276 277 277 276 276 278 273 274 276 276 276 276 273 269 269 270 271 270 269 268 268 269 269 266 264 263 263 262 260 259 259 258 257 256 257 257 256 258 257 256 258 257 255 256 256 256
273 273 272 275 272 275 276 274 274 276 278 273 272 275 275 275 264 269 275 273 275 273 273 275 276 274 273 274 274 276 278 278 276 275 274 274 276 275 276 276 275 275 275 275 275 275 274 274 273 273 271 271 269 268 269 270 271 270 268 267 269 268 264 263 263 262 261 260 259 258 256 255 256 256 255 255 255 255 255 256 255 255 254 255 255 255
275 273 269 275 274 272 272 272 271 267 277 277 276 273 275 271 271 274 271 273 275 276 274 273 275 275 274 274 275 276 277 275 274 275 274 274 274 275 276 275 275 276 276 275 274 273 274 273 273 273 273 269 267 268 269 269 270 268 266 268 267 264 263 262 261 260 260 258 257 256 255 255 255 255 254 255 255 254 254 255 254 254 253 254 254 254
277 269 267 272 277 268 272 270 270 278 276 278 278 274 275 279 276 275 276 274 274 273 274 274 274 275 275 276 275 275 274 274 274 274 273 273 273 274 274 273 273 274 273 273 274 274 272 274 273 273 269 267 266 265 268 269 269 267 266 267 263 262 261 260 260 259 257 256 255 255 255 255 254 254 253 253 253 253 253 253 253 253 253 254 254 254
279 274 275 273 275 271 269 274 275 275 277 279 280 278 280 280 275 276 277 277 276 274 274 274 275 275 275 276 276 275 273 274 275 276 274 275 275 274 275 275 275 275 275 275 275 273 272 274 273 271 266 265 264 264 264 264 268 264 265 264 262 262 260 258 257 256 255 254 254 253 253 252 252 251 252 252 253 253 253 253 252 254 252 253 254 254
274 275 274 271 270 273 274 274 273 273 276 277 278 277 279 278 275 274 275 275 276 276 276 276 276 275 275 275 274 272 274 275 275 274 274 274 274 275 274 274 273 273 273 271 271 271 272 270 268 267 267 265 263 263 261 262 265 265 264 262 261 260 258 256 255 254 253 251 252 251 251 252 252 252 253 252 253 252 252 252 253 253 254 253 254 254
272 273 272 272 272 271 268 275 274 276 275 277 279 278 277 277 277 277 276 277 277 275 275 276 276 276 276 275 275 276 275 275 274 275 275 274 274 274 274 274 274 274 274 272 274 270 268 268 269 267 266 266 263 262 261 259 260 262 261 260 260 259 256 254 254 255 253 253 252 252 251 252 252 252 252 252 252 252 253 253 253 253 254 253 253 253
271 275 271 272 271 272 271 273 273 274 276 278 279 278 278 279 277 275 278 278 277 276 275 275 274 273 273 272 275 275 275 275 274 275 275 275 275 275 274 274 274 274 273 273 271 269 267 268 270 268 266 267 265 262 261 259 259 258 259 259 259 256 254 255 255 254 253 250 250 252 251 251 255 255 253 253 252 252 252 252 253 253 254 253 254 253
272 275 264 271 272 273 273 272 273 273 274 275 275 276 278 278 278 276 275 275 274 274 274 273 273 274 274 276 274 274 273 274 275 275 275 275 275 275 275 275 275 275 274 272 269 267 270 270 269 269 267 268 264 262 260 259 257 257 258 259 256 255 255 255 255 253 250 250 250 251 253 253 252 252 252 252 251 251 253 253 253 254 255 256 256 256
273 272 272 271 267 268 269 272 274 267 267 274 276 277 277 278 277 276 274 273 273 273 273 273 274 273 274 274 274 274 273 275 275 274 273 275 276 276 275 275 274 273 272 270 268 267 268 267 269 268 267 266 263 261 260 259 257 257 258 256 255 255 255 254 253 251 251 251 250 250 251 252 251 250 252 252 252 252 252 257 262 261 259 259 263 267
274 275 274 271 272 270 273 274 276 278 276 277 278 278 278 277 276 275 275 276 275 275 275 274 274 273 273 273 273 274 274 275 275 274 273 274 275 276 276 275 274 273 272 268 265 264 265 267 266 265 265 264 261 260 260 259 257 256 256 256 255 255 254 254 253 252 252 251 251 253 252 251 251 252 251 251 252 251 253 253 255 262 265 266 266 267
Wind_Speed
1 4 6 10 10 10 7 11 13 5 2 3 3 3 4 6 6 3 3 4 0 1 7 9 6 7 10 4 1 1 4 6 4 3 2 1 1 1 2 3 3 4 3 3 3 4 5 5 5 4 5 5 6 9 9 9 10 9 8 10 11 7 8 9 8 8 8 7 7 10 11 9 7 7 8 10 8 9 8 8 9 10 9 10 12 11
3 5 11 12 6 9 11 7 2 1 2 1 2 3 6 4 8 3 2 1 1 3 3 1 1 7 11 1 4 1 2 2 3 4 2 2 1 1 2 3 3 2 2 4 6 7 6 6 7 5 6 8 11 9 8 9 7 6 7 10 7 7 9 9 8 7 8 6 6 8 7 7 8 8 9 9 9 9 9 11 11 10 10 11 10 10
2 9 13 8 3 3 1 3 3 5 3 1 4 3 2 8 3 9 3 2 2 2 8 2 3 9 8 2 2 2 1 0 1 1 2 3 2 1 2 2 3 3 3 4 4 5 5 6 6 6 6 6 5 5 7 5 6 8 9 8 7 7 8 7 6 8 9 7 6 6 5 6 7 6 6 7 6 7 9 10 10 10 10 10 10 9
2 7 14 2 5 4 1 3 4 2 1 4 1 2 9 2 1 6 1 3 1 2 2 1 4 8 4 3 2 2 0 1 2 3 3 2 3 2 1 1 1 2 3 4 4 4 5 4 4 5 7 6 6 7 7 7 7 6 7 6 8 8 7 7 6 6 5 7 7 8 9 9 9 6 5 7 9 10 12 12 10 10 9 10 9 10
11 3 1 6 4 6 5 3 4 5 5 2 5 5 4 2 4 7 5 2 2 1 1 1 3 7 10 8 1 2 1 2 2 4 3 3 2 0 0 2 2 1 2 3 4 4 4 5 5 5 5 5 7 6 6 6 6 5 6 6 7 7 7 7 7 7 4 6 6 6 7 6 6 8 9 10 11 9 8 9 11 9 8 9 9 9
9 6 3 5 1 2 4 3 5 6 4 3 5 10 8 6 7 4 4 4 6 3 1 0 4 5 3 3 5 3 1 1 0 2 1 1 1 1 3 2 1 2 1 1 2 2 3 3 4 5 6 6 5 6 5 4 4 4 5 6 6 7 8 8 7 6 8 8 8 7 8 9 9 10 9 10 7 7 8 7 4 9 9 9 9 9
7 1 5 5 4 3 4 4 4 7 5 0 6 7 11 7 2 1 0 2 2 1 1 2 3 7 6 4 2 2 2 1 1 0 0 0 1 1 1 1 1 1 2 2 2 3 4 4 4 5 6 5 6 6 4 4 5 5 6 6 7 8 7 7 8 7 9 11 11 12 10 8 8 9 6 3 3 5 5 6 8 8 9 10 10 10
2 1 3 2 4 5 4 7 4 9 7 4 2 2 4 4 5 4 4 5 5 1 3 1 1 4 4 4 3 2 1 0 1 2 2 2 2 1 1 0 0 0 0 1 2 2 2 3 3 5 5 5 5 4 4 5 5 6 6 7 8 8 8 7 7 9 8 11 9 10 10 9 9 9 7 5 5 5 5 9 9 7 8 9 10 10
4 1 3 3 3 4 8 4 6 8 7 3 1 5 4 5 4 4 5 4 1 1 7 4 1 3 4 3 3 2 1 4 8 5 5 4 3 3 2 2 2 1 0 0 0 2 2 3 4 3 4 4 4 4 4 4 4 4 5 7 8 10 9 7 8 10 9 9 9 9 9 11 7 7 6 5 6 7 7 11 9 10 9 9 10 10
2 1 4 8 7 7 3 2 8 11 5 1 6 8 7 6 5 4 4 3 1 1 6 4 2 3 7 2 0 2 2 9 5 7 8 6 5 5 4 4 4 1 0 0 0 0 2 2 3 3 2 4 4 3 3 4 4 4 4 8 11 10 8 7 9 10 11 10 9 11 10 12 8 6 6 6 8 7 6 10 9 8 9 9 9 10
0 5 3 4 6 4 5 1 3 1 1 6 3 6 5 7 3 2 6 2 1 2 7 9 7 6 7 3 8 8 7 3 4 2 3 3 4 5 5 5 5 4 2 2 0 0 1 1 2 3 3 3 4 4 4 4 4 4 6 8 13 8 7 8 9 10 11 9 9 10 10 10 9 6 7 9 9 8 9 9 8 8 7 7 8 8
1 1 0 2 3 3 4 4 4 1 3 5 2 3 2 1 5 2 3 5 1 5 4 1 2 1 8 4 6 6 2 3 9 9 12 11 10 9 8 7 5 4 4 2 2 1 0 2 2 3 3 3 3 3 4 4 4 5 5 8 12 8 7 7 7 10 10 10 11 10 10 10 8 7 8 10 9 7 8 7 8 6 7 8 7 8
4 7 2 3 3 8 3 6 2 3 1 4 6 6 5 3 5 2 2 2 5 5 1 3 1 2 11 5 1 4 7 4 4 3 11 13 11 10 8 8 5 4 4 4 4 3 3 3 3 2 1 3 3 3 3 4 4 4 5 7 12 8 6 7 7 10 9 10 9 8 8 7 7 8 9 8 9 6 8 7 8 8 8 7 9 8
6 2 1 3 1 4 6 7 3 1 2 5 7 6 6 0 0 4 4 2 6 5 3 1 0 5 2 5 4 5 3 3 3 4 3 9 13 13 10 7 5 4 5 5 5 5 4 4 3 2 2 2 2 2 3 3 4 4 5 5 10 7 5 5 7 8 10 8 7 6 7 7 7 8 8 7 7 6 6 6 7 7 6 7 6 7
1 3 5 8 5 3 8 9 9 6 9 8 3 9 8 7 5 4 3 4 5 4 2 4 1 6 1 3 2 6 3 3 4 5 4 5 5 5 4 3 4 5 5 6 5 5 5 5 4 4 3 2 2 2 3 3 3 4 4 5 8 8 5 6 6 6 8 8 7 6 7 7 6 7 7 7 6 6 6 5 6 6 5 6 5 6
5 5 4 2 2 3 10 0 6 6 5 0 2 6 5 7 5 2 4 3 1 3 3 2 6 4 4 0 1 2 3 2 3 2 4 6 5 5 5 7 8 7 8 6 5 4 4 4 4 3 3 3 3 3 2 3 3 4 4 5 6 7 5 5 6 6 7 7 6 6 7 6 6 6 6 6 5 5 5 5 6 5 5 4 4 4
2 3 1 4 3 1 2 2 1 2 6 4 5 5 6 2 4 2 2 2 2 3 9 3 7 6 3 0 2 3 1 2 2 0 2 5 7 6 8 9 9 9 8 7 6 5 5 4 4 4 4 4 3 3 4 4 3 4 4 5 6 5 5 5 5 6 6 6 7 6 6 5 6 6 6 6 5 5 4 5 4 5 4 3 3 4
7 4 1 4 4 1 0 0 2 4 3 8 2 7 1 1 3 5 4 1 2 5 7 3 7 6 1 9 1 2 2 5 3 2 3 4 6 9 11 11 11 10 8 6 5 4 5 5 5 4 4 4 4 4 4 4 3 3 3 4 6 6 7 5 6 7 6 7 7 6 6 6 6 6 5 5 5 4 5 3 3 3 4 3 1 1
3 3 2 0 1 2 1 1 4 2 2 3 2 3 5 2 1 1 4 4 2 4 5 5 3 7 8 8 2 5 6 9 7 4 4 8 10 13 12 12 9 6 6 6 6 6 6 6 6 6 6 5 4 4 4 4 3 3 3 3 4 6 5 5 5 5 5 5 5 5 5 5 5 5 5 4 4 4 5 4 3 3 1 1 1 3
0 3 2 1 2 1 0 3 7 3 1 2 2 2 1 2 1 5 7 3 4 7 5 10 4 13 3 5 10 7 12 10 5 6 11 14 15 14 13 12 12 11 10 10 10 8 7 6 7 7 7 6 6 5 4 4 3 4 3 4 4 4 4 5 6 5 6 4 5 5 4 4 4 4 5 4 5 6 5 4 4 4 5 5 4 5
3 2 4 1 2 2 3 4 8 11 8 1 2 2 0 0 2 3 1 4 5 3 5 8 10 9 1 3 8 5 1 6 12 15 13 12 13 13 13 14 13 12 12 11 7 5 5 6 6 6 5 5 4 4 4 4 4 4 3 4 4 7 5 5 4 5 4 5 4 5 5 4 4 4 3 4 3 4 3 3 3 3 3 3 4 3
2 2 6 1 2 4 7 3 3 4 5 7 12 11 12 7 2 2 9 2 1 3 5 4 14 8 2 3 1 1 3 4 9 7 9 11 12 14 14 10 8 9 9 6 4 4 5 5 5 5 4 4 4 5 5 4 3 4 4 4 4 4 5 5 4 5 4 4 4 5 4 3 2 3 2 3 3 3 3 2 2 1 2 2 2 1
4 3 5 4 7 8 3 0 1 0 0 1 4 5 6 6 4 4 9 5 1 4 5 1 2 11 1 0 1 3 3 4 4 6 8 8 11 8 5 5 5 5 5 4 5 5 5 5 5 6 7 7 7 6 6 5 5 5 4 4 3 5 4 4 5 4 4 4 4 4 3 3 2 2 2 2 1 1 1 0 0 1 0 0 1 1
4 2 1 2 2 3 2 1 1 2 1 1 2 2 4 7 7 8 6 4 4 1 1 1 4 6 1 2 1 2 4 4 3 6 9 5 4 7 8 8 7 5 4 4 4 5 5 5 5 7 8 9 8 7 7 6 5 4 4 4 3 4 4 4 4 4 4 4 4 3 3 3 1 2 1 2 2 1 1 0 0 0 1 1 2 2
4 4 6 2 1 3 4 2 1 1 1 3 3 2 3 2 3 2 5 1 1 6 4 5 14 9 1 1 1 1 2 0 3 4 5 5 4 7 8 7 5 5 4 5 6 6 6 6 8 10 9 8 7 6 6 7 6 5 4 4 4 4 4 4 4 4 4 4 4 3 3 4 3 3 3 2 2 1 1 1 1 1 1 1 2 2
4 4 8 8 11 9 7 7 8 8 8 2 1 1 3 8 6 3 6 3 8 2 8 5 13 3 2 2 0 2 2 1 1 1 1 4 5 6 6 6 7 6 9 9 7 6 9 9 8 8 8 8 7 8 7 6 6 5 5 6 5 6 4 5 4 4 4 4 5 4 4 4 3 4 3 3 2 1 1 1 1 1 1 1 2 1
3 1 5 8 10 12 8 2 2 5 4 6 4 7 6 4 6 5 2 3 9 2 9 13 12 1 4 1 2 2 1 3 2 2 5 5 5 4 4 5 7 9 10 8 7 6 4 7 11 10 8 7 7 7 7 7 7 6 6 6 6 6 7 6 5 5 5 5 5 5 5 4 5 4 3 3 2 2 2 2 2 2 2 2 3 3
3 3 7 10 10 9 3 3 5 7 7 6 7 7 7 7 8 10 10 9 5 1 14 10 1 3 9 4 2 3 7 3 3 5 5 7 6 6 6 4 5 5 5 4 6 8 11 11 8 8 8 8 9 7 7 7 8 8 8 9 7 7 6 6 6 6 6 5 5 5 5 5 4 4 3 3 3 3 2 2 2 3 2 2 4 4
5 8 6 5 8 6 3 3 6 3 4 4 8 9 9 10 6 11 9 9 7 10 16 10 4 5 8 4 7 11 7 4 8 9 8 5 2 3 3 6 8 9 7 7 9 9 9 10 9 9 9 9 7 8 9 7 6 6 6 7 7 7 8 7 7 7 7 6 6 6 5 5 4 3 3 3 3 2 2 2 2 2 3 2 3 3
2 4 3 4 7 6 5 5 4 7 3 2 7 12 12 9 13 13 13 10 11 12 12 7 1 11 5 3 6 6 2 4 3 1 2 3 4 5 4 6 8 9 8 8 9 10 9 8 7 8 9 9 10 10 8 8 8 9 9 9 7 7 8 6 7 7 7 7 7 6 5 5 4 4 3 3 3 3 2 2 2 2 2 2 2 2
5 3 5 3 4 7 5 3 3 5 5 9 12 12 6 5 6 8 3 1 2 5 8 6 10 14 7 4 4 3 3 3 3 4 4 3 3 5 5 7 9 7 6 7 7 7 7 8 8 8 9 10 10 11 10 10 9 8 8 8 9 9 8 7 7 7 7 8 6 6 5 5 4 3 3 2 3 1 1 2 1 1 1 1 2 2
3 3 3 2 5 7 4 6 5 3 1 7 15 13 7 9 10 6 5 7 6 10 7 5 8 12 5 2 4 5 4 5 8 7 5 5 6 5 7 8 7 7 7 8 7 6 7 7 7 8 9 9 9 8 8 8 8 8 10 10 10 9 6 7 7 8 7 6 6 6 6 4 4 3 3 2 2 1 0 0 1 1 1 1 2 3
5 5 5 3 7 9 2 5 7 4 2 10 22 18 14 13 8 2 2 7 13 9 7 10 14 5 2 4 3 5 6 5 5 5 7 7 5 5 8 9 7 6 8 8 7 7 8 8 9 9 8 6 8 8 9 9 8 10 10 9 11 5 6 7 7 7 6 6 7 6 5 4 4 3 2 1 1 1 1 2 3 3 3 3 3 2
4 8 7 6 7 2 1 3 4 6 12 18 1 9 17 15 14 11 11 13 8 8 7 6 5 0 2 3 6 9 7 6 8 9 6 6 5 6 7 5 7 7 5 5 5 6 6 5 5 6 7 7 7 8 7 6 9 11 9 7 4 6 6 6 6 7 7 6 6 5 4 4 3 2 1 1 1 1 2 3 3 2 2 3 3 3
9 7 6 2 3 3 2 4 5 13 18 1 2 5 6 12 12 15 15 10 6 6 6 4 4 4 9 9 11 9 5 4 3 3 3 5 5 6 6 7 8 8 7 5 5 6 6 7 5 5 5 6 7 5 4 5 6 5 3 5 6 5 6 6 7 6 7 7 5 4 4 4 3 2 1 1 1 2 2 3 2 3 3 3 4 5
7 9 3 2 5 4 4 6 6 9 2 3 5 3 4 6 2 2 6 7 8 10 10 7 8 11 12 11 5 1 1 2 3 4 6 7 6 7 6 8 8 6 6 8 8 6 5 6 7 7 7 4 4 5 5 8 5 5 6 3 5 5 5 6 6 7 6 6 5 4 4 3 2 1 1 1 1 2 2 2 2 3 3 3 3 3
9 3 5 6 5 8 6 10 10 4 5 4 1 2 7 7 7 7 9 7 9 6 8 7 9 14 10 5 1 1 1 1 4 8 3 7 7 7 8 6 6 8 8 5 6 7 7 6 6 7 4 3 5 5 7 5 4 5 4 4 4 4 4 5 6 7 7 5 5 4 3 3 2 1 1 0 1 1 1 1 2 2 2 3 3 4
4 11 7 8 6 8 6 4 2 1 12 9 4 2 1 3 6 5 4 6 4 2 8 11 11 11 8 3 1 2 2 1 6 9 4 6 4 6 4 4 4 4 5 5 4 3 3 4 3 3 6 5 5 5 4 4 5 5 5 5 4 5 6 6 7 6 5 6 4 4 4 3 3 2 1 0 0 0 0 0 1 1 1 3 5 6
4 0 3 10 3 4 4 7 7 9 7 2 3 2 1 1 8 5 1 7 6 7 10 10 9 8 6 6 3 5 4 2 8 7 7 4 4 4 6 6 6 6 6 6 8 8 7 6 5 4 3 3 4 4 4 5 6 6 6 5 5 5 6 7 6 7 7 6 5 4 4 3 2 2 2 1 0 0 0 1 1 1 2 3 3 5
1 0 3 2 3 5 5 6 9 3 5 2 3 2 3 3 6 4 3 8 5 6 6 7 8 7 7 4 7 7 8 7 6 8 4 8 7 6 7 8 7 6 7 6 5 4 1 3 4 3 4 6 8 5 6 6 7 6 6 6 6 6 8 8 8 5 5 5 5 4 3 3 2 2 1 1 0 0 0 1 1 2 2 3 3 5
2 2 2 11 9 8 10 5 2 5 3 2 5 4 4 2 6 5 11 8 2 5 5 7 7 8 7 7 7 7 9 8 8 5 3 3 2 3 5 5 7 7 8 7 6 3 3 4 7 9 10 9 5 7 6 7 7 7 6 7 7 10 9 6 6 6 6 5 4 3 3 2 2 1 1 1 0 0 0 1 2 2 3 4 4 4
2 3 4 1 4 8 5 6 7 3 4 7 1 7 6 5 3 11 5 2 10 6 7 7 8 5 8 11 10 9 8 9 1 1 3 4 6 4 5 6 4 3 2 1 3 4 4 4 5 4 4 4 6 7 7 7 8 6 7 7 10 8 5 7 7 6 6 4 4 3 2 1 1 1 1 1 1 2 2 1 1 2 3 3 4 6
10 8 5 6 2 3 1 5 4 8 4 12 12 2 4 4 7 4 2 0 3 7 9 7 7 7 9 8 10 11 8 2 3 4 4 4 4 6 6 6 7 8 8 6 4 5 6 6 7 9 8 4 4 5 5 7 7 7 6 10 7 5 6 6 6 5 4 4 3 2 1 0 1 1 1 1 1 1 3 2 3 3 3 4 5 6
3 4 3 4 5 5 8 8 9 6 3 14 17 10 6 9 6 6 7 5 2 4 7 7 8 8 10 10 11 10 7 5 4 4 4 4 6 6 4 4 4 4 5 5 6 5 6 8 7 7 5 4 4 4 5 9 8 7 8 8 5 6 5 5 4 4 4 3 2 1 0 0 0 0 0 0 1 1 2 3 3 3 3 4 4 6
5 7 6 7 5 9 9 7 2 1 8 10 8 4 9 8 5 9 6 8 7 6 4 5 8 7 10 10 7 7 5 6 7 6 5 7 6 7 7 8 9 9 10 9 10 7 6 10 11 7 5 4 5 5 5 5 8 7 8 5 7 6 7 6 5 4 4 3 2 1 0 0 0 1 1 1 0 1 2 3 2 4 2 3 4 5
4 2 3 4 5 3 2 4 1 1 2 7 5 3 7 5 2 4 5 4 5 6 9 9 8 7 8 7 7 5 6 6 6 6 5 6 7 8 6 5 6 6 6 5 4 6 9 7 5 5 7 5 5 5 4 5 6 10 6 6 6 6 6 6 5 4 4 2 1 1 0 0 1 1 1 1 1 2 2 3 3 4 4 4 5 5
2 2 1 3 3 0 7 1 7 6 3 6 11 6 1 1 6 6 4 5 5 6 7 6 6 7 9 10 10 9 9 8 7 7 6 5 7 8 8 8 9 9 9 9 11 6 5 6 8 9 9 10 7 6 5 5 3 4 6 8 7 6 6 5 4 4 3 3 2 1 0 0 1 2 2 1 2 2 2 3 3 3 4 4 6 6
4 3 2 3 1 5 4 3 2 2 3 7 8 8 6 8 6 5 6 6 4 3 6 6 3 2 5 6 10 8 9 7 6 7 7 7 8 8 8 9 10 8 8 9 5 6 6 7 10 10 9 11 9 7 6 5 5 5 7 6 7 6 6 5 4 5 4 3 2 1 1 1 1 2 2 3 2 3 3 3 3 4 6 5 6 6
4 4 4 5 6 3 3 1 0 2 2 4 5 7 8 7 5 5 6 5 4 4 3 1 4 6 7 9 8 7 6 8 8 8 8 8 7 7 8 10 10 10 9 6 6 7 10 10 11 11 11 11 7 8 7 6 5 6 8 8 7 8 7 6 4 4 3 2 2 2 1 1 2 2 3 3 3 4 4 4 4 6 7 6 5 7
6 6 3 3 1 6 8 6 7 3 3 6 8 12 13 11 6 5 3 4 5 6 6 6 7 5 6 6 6 7 8 9 8 6 8 10 10 10 8 8 8 9 8 6 5 8 8 9 11 10 11 9 7 8 8 7 7 6 6 7 7 7 7 6 5 4 4 3 3 2 1 2 2 2 3 4 4 5 5 7 12 9 8 7 10 17
8 11 8 7 9 7 3 7 9 9 6 7 9 11 11 7 6 7 9 9 9 8 8 7 7 6 7 9 7 8 9 10 11 7 7 8 10 10 10 9 8 8 9 5 5 6 9 10 8 7 8 8 7 8 8 8 7 7 6 7 7 7 6 6 6 4 4 3 4 4 3 3 3 3 4 4 4 3 5 6 5 12 17 15 15 16
Wind_Direction
107 150 189 213 216 197 203 197 206 219 134 116 111 115 205 220 271 287 253 251 177 332 251 247 240 243 263 274 322 21 74 81 97 101 105 88 65 32 25 33 32 40 30 319 13 28 16 12 13 12 16 17 36 32 21 28 28 28 26 45 43 22 32 47 45 44 44 49 51 54 53 59 41 43 47 48 36 40 36 28 34 34 35 32 33 30
69 173 234 228 212 186 208 213 207 75 92 165 147 184 260 183 252 248 240 5 322 161 294 353 260 264 253 1 343 342 74 104 154 140 140 109 74 22 29 23 7 342 329 2 24 16 13 12 13 17 28 26 39 15 20 29 23 28 33 50 46 34 44 45 50 62 62 49 61 85 71 72 54 45 44 43 35 36 38 38 33 32 32 35 35 32
140 204 233 231 127 123 73 175 193 205 199 91 195 225 274 260 242 279 288 343 281 129 260 326 259 266 272 76 18 28 96 48 330 164 140 137 114 64 34 23 12 21 1 12 18 19 11 5 13 26 29 34 40 28 29 15 33 33 40 41 47 43 48 43 43 61 71 68 59 75 73 73 81 63 66 63 49 41 46 40 34 32 31 31 36 32
238 266 248 149 140 134 71 102 139 122 92 180 126 165 236 210 32 296 302 6 58 161 273 176 225 275 277 77 63 333 110 96 47 72 74 86 131 110 62 10 27 10 356 18 13 7 355 2 12 26 31 22 29 32 25 18 28 36 38 43 51 52 50 48 37 61 75 86 92 81 85 75 73 69 56 65 48 41 40 35 31 33 29 30 37 32
209 216 317 142 144 163 198 146 135 144 225 259 202 219 245 198 229 188 255 301 289 327 53 147 305 293 247 235 237 42 76 80 53 66 64 51 54 114 77 47 31 32 349 8 14 3 358 9 18 24 20 17 38 31 23 16 22 36 39 43 55 57 57 55 49 51 67 83 72 76 79 76 72 49 43 45 37 34 37 41 34 26 26 32 38 33
273 251 104 85 91 150 177 197 202 141 219 297 230 207 222 219 229 257 330 349 6 332 333 163 322 290 307 290 213 161 176 80 15 89 102 41 58 67 71 49 17 5 345 359 347 336 334 355 13 26 25 31 33 31 12 4 22 39 49 55 60 62 56 53 52 58 73 69 76 68 60 53 55 55 40 40 34 27 35 42 39 38 34 35 40 36
215 331 172 194 152 162 179 207 225 162 192 53 270 200 218 216 191 143 177 86 310 264 327 36 202 274 326 311 214 172 143 89 7 71 248 136 156 85 85 57 17 359 5 4 356 353 9 357 23 29 30 20 31 16 358 13 26 38 52 57 60 63 60 54 57 59 78 74 71 75 79 83 76 84 58 52 43 52 43 55 48 43 39 35 38 35
132 307 97 91 145 166 190 246 232 160 132 228 258 143 157 147 181 205 161 179 234 251 299 29 139 258 302 283 31 97 104 336 283 244 244 248 217 205 184 250 281 322 304 342 344 338 342 358 21 36 19 24 18 357 7 25 24 41 47 57 61 61 61 53 59 64 65 88 88 89 85 77 73 70 74 50 50 49 54 56 44 42 42 38 37 35
146 178 162 164 160 164 213 201 178 163 149 216 201 125 135 164 173 136 143 171 194 40 284 320 294 323 254 258 13 81 285 267 244 219 227 224 228 214 217 227 233 229 255 231 9 350 351 9 15 18 34 9 19 14 22 20 26 40 48 62 65 61 61 56 63 73 66 78 84 85 88 82 64 70 66 62 50 49 38 53 37 40 35 35 36 37
298 195 214 167 151 215 206 237 165 164 202 217 133 96 90 85 80 117 103 123 339 78 264 261 190 236 270 282 354 339 295 261 225 191 214 214 205 207 210 228 222 240 243 285 255 328 356 3 10 354 20 36 13 6 23 34 37 43 55 68 67 57 55 57 63 70 67 68 76 80 75 82 73 63 67 61 53 47 35 50 39 34 33 27 29 28
230 313 154 121 192 203 137 60 164 154 142 132 102 69 22 39 33 34 66 94 64 255 248 222 212 175 288 231 206 167 214 202 107 198 234 221 221 226 228 214 208 198 198 184 231 342 356 335 6 29 41 17 26 18 27 40 47 51 64 71 68 56 57 57 65 71 74 72 71 76 77 79 79 71 69 62 49 42 41 44 37 34 30 31 31 24
350 38 186 251 89 95 100 79 25 105 131 127 111 123 68 342 13 36 345 37 168 266 259 297 212 157 199 288 272 233 257 208 165 183 192 198 202 206 204 211 207 192 191 196 161 172 78 70 44 36 46 42 34 35 38 45 44 56 64 78 79 59 56 60 68 74 71 73 70 73 77 79 79 79 74 71 66 48 53 46 42 29 37 28 29 27
274 237 236 317 214 136 109 84 22 36 69 88 93 75 115 247 36 298 21 256 212 217 221 340 288 298 241 219 226 231 217 222 242 220 194 188 194 200 208 205 196 188 185 191 201 193 190 150 130 111 110 87 70 73 63 57 61 68 74 81 89 71 60 65 69 76 75 75 73 80 83 85 83 76 75 75 72 52 58 49 45 37 38 25 29 20
272 293 220 238 71 223 144 143 174 91 198 120 153 144 103 133 164 258 269 245 299 287 276 313 71 252 244 275 223 227 220 209 250 253 243 197 190 193 195 194 185 192 197 207 199 196 186 177 176 184 168 141 115 86 74 75 80 81 84 83 91 87 70 76 75 79 82 77 81 79 81 80 79 75 76 72 73 65 67 61 59 54 46 41 34 20
229 326 253 148 235 172 180 197 180 159 161 205 118 152 179 146 160 223 181 211 226 207 278 265 78 232 118 218 198 228 260 289 254 244 234 217 210 194 174 162 181 199 217 210 209 201 188 183 182 182 184 174 160 143 111 105 96 96 96 96 99 96 74 79 82 83 83 81 75 72 74 76 73 79 76 72 72 71 68 57 66 58 49 49 27 29
202 228 264 269 270 155 183 240 112 96 56 205 167 75 99 227 140 193 205 160 245 331 334 190 209 191 190 71 259 296 304 314 341 283 183 192 170 155 169 192 202 211 212 211 209 202 203 192 179 173 177 183 181 168 150 126 125 114 114 104 98 103 104 90 88 79 83 82 79 73 75 72 77 81 82 73 68 65 68 65 68 57 51 42 31 19
59 283 293 336 51 124 215 133 199 145 200 207 112 193 211 158 114 69 29 72 96 46 255 136 295 283 313 343 325 324 327 311 333 26 166 167 167 172 196 204 210 211 211 209 203 199 196 187 178 173 177 179 177 173 168 168 162 144 135 121 108 104 98 89 86 88 85 86 80 74 77 78 77 76 75 83 77 73 60 63 56 58 41 32 31 19
140 232 296 102 222 320 260 200 92 34 146 98 186 234 177 139 115 131 222 338 79 197 268 95 233 280 69 278 55 354 333 267 252 211 187 173 172 192 205 205 208 208 210 208 204 199 193 179 176 179 181 181 183 180 173 175 180 163 145 131 121 114 104 96 91 89 90 88 86 82 77 76 84 85 81 80 83 82 80 68 63 60 49 46 5 38
120 282 291 308 183 298 350 112 43 348 40 148 195 205 114 207 191 290 88 253 239 253 267 277 242 252 203 244 95 252 222 235 212 195 173 195 195 206 208 212 214 215 212 208 204 202 196 185 183 178 182 190 188 181 176 170 163 145 125 117 110 111 109 111 104 100 90 90 92 91 88 91 83 81 88 92 90 86 77 67 74 73 72 69 46 25
58 158 287 338 149 219 32 114 191 204 345 43 65 67 355 107 168 130 200 188 136 261 281 268 305 270 147 211 179 210 210 211 161 181 210 205 202 200 204 204 203 205 206 206 207 201 190 186 182 179 181 184 186 186 187 169 149 131 131 116 105 96 101 100 101 106 99 96 98 94 90 73 80 77 80 66 67 56 54 43 38 27 25 14 11 17
160 133 228 286 273 102 182 187 209 166 166 104 122 229 106 344 232 106 353 146 179 194 206 268 276 268 254 196 177 209 246 201 177 196 205 205 206 209 208 202 202 204 205 208 202 188 183 186 184 186 184 186 191 189 174 172 165 155 143 127 130 123 114 106 117 111 117 107 98 94 91 85 79 81 83 80 82 92 78 50 45 32 14 7 11 5
126 164 190 159 141 220 234 248 211 183 196 176 171 195 181 135 160 177 257 72 144 163 231 209 254 278 263 132 225 243 246 193 214 208 202 203 207 209 210 208 205 208 213 203 192 180 187 185 187 188 185 189 180 188 184 184 146 146 151 141 125 114 122 125 122 123 124 110 117 123 130 138 130 119 92 87 64 68 56 36 37 21 14 24 326 358
155 142 108 188 200 202 221 8 241 202 129 189 165 238 175 194 146 181 234 228 32 249 83 184 23 261 177 189 228 241 249 252 218 188 219 212 213 215 218 222 228 216 208 204 194 190 189 187 188 188 189 192 192 188 185 172 174 173 160 140 134 132 158 147 152 140 140 143 144 154 156 133 118 77 71 90 102 96 172 186 207 189 135 161 313 325
115 122 140 299 312 315 312 317 46 64 103 317 272 102 129 191 197 212 225 187 192 162 207 14 238 258 18 179 237 243 250 250 229 193 208 212 198 203 204 210 213 211 211 197 185 182 183 180 183 186 199 197 193 190 186 183 183 175 160 156 142 156 167 167 155 156 150 148 153 144 132 149 130 127 152 159 188 172 190 185 175 128 50 23 2 359
143 238 137 144 33 345 343 340 13 11 52 198 210 214 169 121 66 118 95 71 225 209 161 144 254 257 266 154 315 33 33 101 197 217 192 207 210 210 212 212 211 207 206 210 203 189 176 183 191 203 201 195 191 186 185 186 185 177 182 164 168 187 186 180 168 160 167 157 165 166 165 182 175 170 183 186 186 177 156 79 56 38 35 43 4 339
151 173 145 188 211 212 212 187 208 223 216 225 210 237 231 176 158 118 235 192 228 189 151 222 251 264 290 329 51 13 24 355 306 185 150 191 204 209 208 211 211 204 215 213 198 174 191 195 201 205 204 195 191 188 188 189 185 185 185 190 184 185 192 200 176 180 168 176 175 189 192 198 187 192 192 189 181 167 138 105 79 70 17 47 355 351
166 114 185 207 208 229 230 195 258 97 75 182 224 183 209 198 202 180 106 169 212 204 209 234 251 331 279 240 251 290 52 239 251 205 204 227 232 228 223 219 214 214 215 208 192 190 186 204 210 210 200 196 193 193 191 186 189 189 188 196 198 196 191 194 181 186 187 187 189 189 200 194 196 194 192 184 174 159 139 117 105 66 38 7 8 5
86 199 218 221 232 242 139 180 190 165 176 209 192 228 209 181 178 184 190 225 141 158 252 244 174 237 249 234 224 275 262 224 243 225 221 228 221 209 218 228 236 238 228 183 187 193 207 213 209 203 202 199 202 195 192 193 191 188 188 197 199 196 195 193 185 191 196 191 197 198 197 195 197 192 189 173 160 145 130 102 70 47 21 15 8 11
153 217 220 182 246 236 152 175 164 186 215 198 203 212 214 205 179 196 219 223 168 215 252 254 180 206 248 230 189 209 215 191 206 215 214 210 188 161 184 215 221 227 222 201 216 213 214 214 208 204 201 201 193 195 197 192 194 197 202 202 196 188 201 191 184 197 199 195 200 203 190 191 194 185 172 164 138 107 82 68 59 38 21 17 11 5
128 238 204 171 231 249 228 167 180 189 214 232 234 229 228 199 205 210 223 221 208 234 245 274 184 240 237 206 198 220 175 204 229 108 118 141 189 196 204 225 230 234 225 219 221 220 220 219 211 205 199 196 195 198 194 194 196 198 198 203 199 199 206 170 194 196 198 200 205 192 183 185 179 168 155 124 104 93 70 63 42 28 22 20 7 343
151 280 108 137 227 248 244 101 151 203 201 239 247 242 196 195 232 224 207 145 201 276 267 270 261 266 252 170 211 251 211 246 304 287 236 220 220 212 214 230 237 237 236 232 230 227 219 217 215 211 207 203 195 195 193 196 199 198 201 201 202 207 201 177 195 200 194 206 196 180 175 173 170 140 129 120 97 92 63 45 34 35 36 13 351 343
154 246 60 108 226 243 224 165 177 156 183 237 255 241 165 201 230 193 173 203 187 224 224 224 250 253 254 123 193 239 229 226 235 245 264 247 231 225 230 242 241 239 235 231 228 221 217 217 213 209 209 207 201 194 194 197 198 192 203 205 208 208 180 185 199 199 202 196 177 174 174 170 150 135 134 116 94 98 89 85 54 50 36 7 360 344
181 142 164 179 221 238 255 143 163 137 275 275 246 230 198 215 212 98 243 211 215 212 219 234 244 250 231 165 199 248 228 230 244 239 240 254 242 214 230 238 243 242 234 228 221 215 216 213 212 212 213 204 198 198 206 196 187 201 206 203 214 180 172 193 195 195 192 181 172 173 166 150 145 141 124 101 108 82 40 43 27 23 10 7 345 328
159 176 207 166 229 180 34 140 131 149 216 234 329 160 183 206 204 213 230 228 217 172 212 213 244 34 133 181 207 244 231 208 211 233 209 205 226 237 241 240 241 240 241 232 219 216 220 217 216 214 209 205 206 206 205 194 200 209 206 200 165 170 190 180 191 183 183 171 173 166 153 140 131 125 120 105 69 40 31 35 23 9 358 346 341 346
181 193 210 132 138 165 72 119 170 217 229 59 329 348 195 192 183 206 225 239 225 214 237 265 269 234 232 224 225 232 241 241 245 226 258 231 215 227 221 226 227 222 223 221 220 219 210 205 205 199 205 211 208 205 187 210 217 225 199 179 183 186 176 188 178 182 173 170 160 146 140 131 126 120 124 73 55 30 35 29 10 8 4 359 341 340
181 188 143 89 119 51 110 194 214 240 9 304 357 5 26 75 64 97 312 271 235 214 206 206 226 237 237 241 246 191 205 262 304 251 231 244 209 208 205 220 221 206 211 214 207 217 206 204 203 200 215 209 187 202 192 215 201 189 217 163 185 181 184 175 178 176 162 162 159 149 144 133 124 123 96 67 29 37 14 22 12 0 348 338 323 303
186 124 154 204 172 179 199 198 232 8 300 205 23 258 170 158 173 166 235 248 236 195 171 191 214 243 242 253 216 68 57 47 331 286 227 220 217 205 202 219 203 209 210 217 194 209 208 202 194 208 187 170 192 192 212 204 167 188 175 173 184 161 169 164 176 178 170 160 155 146 139 129 130 132 111 93 40 26 357 8 356 357 340 329 313 311
197 187 194 195 229 152 158 199 297 270 252 248 216 187 144 175 146 178 181 283 293 191 187 177 207 229 240 229 90 106 96 48 305 278 272 239 203 195 220 234 242 228 220 217 219 239 206 204 196 186 179 181 186 201 185 168 164 159 169 176 160 161 171 176 185 170 161 158 155 149 139 134 136 140 153 161 161 175 324 36 341 305 336 323 314 309
19 56 218 213 195 87 176 220 212 227 256 136 226 165 163 145 127 96 94 278 264 188 201 169 196 224 205 189 168 128 100 190 249 256 262 256 232 193 199 224 216 220 219 209 192 200 210 198 180 174 158 155 198 211 165 155 150 152 175 172 171 170 172 188 175 169 164 158 149 139 141 140 142 153 166 172 161 143 351 324 311 303 304 283 286 288
51 351 145 232 203 207 165 217 228 237 236 315 129 140 165 136 109 75 310 268 259 196 183 160 189 209 205 169 147 155 157 203 244 257 216 209 212 202 190 209 214 227 237 224 232 219 182 135 118 139 171 193 213 164 161 151 152 164 170 175 162 171 192 191 178 160 140 135 138 140 140 148 151 167 155 148 114 143 238 297 335 316 312 305 293 296
168 280 233 222 212 210 214 245 1 281 271 155 170 149 160 148 83 94 233 237 229 182 179 176 193 201 161 150 167 165 226 199 203 210 174 178 134 229 229 224 215 203 204 205 212 164 162 185 188 189 196 209 178 159 160 154 149 175 175 165 171 200 195 166 146 141 140 137 137 143 148 159 158 150 140 118 131 64 17 344 322 324 314 306 303 296
302 93 316 77 213 225 237 237 244 267 230 154 280 162 172 95 185 222 239 191 150 195 200 186 190 193 161 173 187 203 217 224 160 64 170 178 194 222 218 218 220 241 258 186 159 172 199 196 217 232 247 224 167 169 165 161 171 173 169 168 201 198 139 143 142 137 140 143 148 153 156 158 141 109 108 61 49 13 348 325 334 309 303 294 300 299
185 152 211 192 197 55 58 249 281 265 262 128 122 45 294 155 234 186 142 295 183 170 164 207 201 203 167 200 211 209 227 235 192 225 237 235 233 241 230 203 196 206 214 211 225 209 184 197 210 217 216 185 174 170 178 168 173 176 170 197 199 137 144 134 138 138 140 142 147 156 143 124 93 16 72 22 17 10 328 323 316 301 299 300 299 294
215 100 238 248 182 158 198 201 217 218 125 151 143 180 207 210 187 155 131 176 215 163 180 179 220 198 190 192 202 225 230 243 286 251 249 252 239 255 259 247 240 244 248 235 223 200 178 208 213 216 202 175 181 183 180 178 178 177 185 204 127 140 128 134 131 134 136 147 149 139 127 116 67 57 42 21 1 6 313 305 297 291 284 288 289 296
226 184 186 192 206 156 196 212 223 177 163 189 164 162 199 202 149 176 146 166 171 234 189 176 208 206 196 202 208 194 208 221 224 228 205 234 231 231 234 226 214 213 214 216 223 204 186 204 212 201 192 192 186 196 188 190 176 173 199 173 143 147 145 139 139 133 148 157 160 156 176 30 344 299 313 298 102 309 291 295 295 304 277 279 289 283
335 147 172 84 265 258 256 185 141 10 184 198 252 204 200 196 170 148 159 145 223 189 167 186 210 193 195 190 180 223 210 222 220 245 232 241 238 239 234 248 259 248 241 241 242 193 203 208 196 180 200 208 196 194 190 191 171 184 197 144 153 144 141 138 136 148 168 174 173 210 116 347 324 324 299 293 252 230 244 255 283 282 292 279 275 273
246 133 132 189 268 267 269 109 148 182 177 193 210 225 224 201 202 194 201 217 208 174 196 220 197 190 188 177 189 200 218 220 223 239 240 243 243 240 230 225 235 225 220 219 226 188 177 183 190 202 200 206 201 191 191 180 182 166 137 154 143 140 134 137 148 158 165 182 203 205 160 174 304 320 311 280 254 242 245 249 257 264 275 268 272 276
306 170 84 250 236 189 247 150 207 349 213 209 205 214 234 240 219 206 212 220 219 193 192 207 151 124 132 177 202 197 225 220 206 234 238 236 238 238 233 229 235 245 238 225 215 172 184 186 204 209 202 211 196 185 179 172 155 142 137 137 138 133 131 143 162 174 189 201 192 214 183 190 268 271 285 277 263 271 272 255 237 253 257 258 259 270
184 127 207 194 192 250 88 24 32 25 336 264 249 250 241 236 223 212 219 226 228 214 222 175 196 184 175 204 191 197 221 245 221 221 229 241 244 242 235 230 230 232 242 223 209 181 196 203 207 212 202 212 177 177 176 169 150 145 144 144 143 144 147 165 170 165 179 187 166 217 216 208 230 242 256 273 270 247 233 248 258 260 265 239 221 233
102 226 198 94 182 243 200 196 156 125 251 244 228 228 232 234 209 215 205 230 225 219 212 205 237 218 210 218 188 183 209 239 240 211 225 234 238 240 241 238 237 236 241 228 189 197 210 211 209 207 206 204 170 174 173 164 159 159 148 146 150 150 157 162 161 168 200 189 189 215 222 240 242 240 245 252 267 279 278 247 257 254 250 257 254 257
173 214 157 195 205 237 155 178 187 208 227 219 211 217 222 220 184 205 220 225 227 219 208 198 225 243 235 241 210 196 219 230 245 226 221 239 242 238 236 237 241 237 235 204 181 210 211 216 208 205 207 192 167 172 169 165 162 159 158 153 157 158 158 154 165 185 197 190 206 207 211 216 236 239 237 245 253 262 278 296 278 279 282 282 286 284